Weather History for KBNW - November, 2012

Change the Weather History Date:

Tuesday, November 6, 2012

  Actual Average Record
Temperature  
Mean Temperature 48 °F -  
Max Temperature 53 °F 48 °F 73 °F (2004)
Min Temperature 42 °F 28 °F 7 °F (1959)
Degree Days  
Heating Degree Days 18    
Moisture  
Dew Point 38 °F    
Average Humidity 71    
Maximum Humidity 87    
Minimum Humidity 54    
Precipitation  
Precipitation 0.00 in - - ()
Sea Level Pressure  
Sea Level Pressure 29.94 in    
Wind  
Wind Speed 12 mph (West)    
Max Wind Speed 22 mph    
Max Gust Speed 29 mph    
Visibility 8 miles    
Events Rain    
Averages and records for this station are not official NWS values.
T = Trace of Precipitation, MM = Missing Value Source: NWS Daily Summary

Daily Weather History Graph

Daily Weather History Graph

Search for Another Location

Airport or City:

Trip Planner

Search our weather history database for the weather conditions in past years. The results will help you decide how hot, cold, wet, or windy it might be!

Date:

Astronomy

Nov. 06, 2012 Rise Set
Actual Time 6:54 AM CST 5:02 PM CST
Civil Twilight 6:25 AM CST 5:32 PM CST
Nautical Twilight 5:52 AM CST 6:05 PM CST
Astronomical Twilight 5:19 AM CST 6:38 PM CST
Moon 11:43 PM CST (11/6) 12:46 PM CST (11/6)
Length of Visible Light 11h 06m
Length of Day
10h 07m
Waning Gibbous, 53% of the Moon is Illuminated
Nov 6
Waning Gibbous
Nov 6
Last Quarter
Nov 13
New
Nov 20
First Quarter
Nov 28
Full

Hourly Weather History & Observations

Time (CST) Temp. Windchill Dew Point Humidity Pressure Visibility Wind Dir Wind Speed Gust Speed Precip Events Conditions
12:15 AM 43.2 °F 38.4 °F 38.5 °F 84% 30.04 in 7.0 mi South 8.1 mph - N/A   Overcast
12:35 AM 43.3 °F 38.1 °F 38.7 °F 84% 30.04 in 5.0 mi SSW 9.2 mph - N/A   Overcast
12:55 AM 43.3 °F 38.6 °F 38.7 °F 84% 30.03 in 5.0 mi SSW 8.1 mph - N/A   Overcast
1:15 AM 43.3 °F 39.2 °F 38.8 °F 84% 30.04 in 5.0 mi SSW 6.9 mph - N/A   Overcast
1:35 AM 43.2 °F 38.4 °F 39.0 °F 85% 30.03 in 5.0 mi SSW 8.1 mph - N/A   Overcast
1:55 AM 43.2 °F 37.4 °F 39.2 °F 86% 30.02 in 5.0 mi South 10.4 mph - N/A   Overcast
2:15 AM 43.2 °F 37.9 °F 39.0 °F 85% 30.00 in 5.0 mi South 9.2 mph - N/A   Overcast
2:35 AM 43.2 °F 38.4 °F 38.8 °F 85% 29.99 in 5.0 mi South 8.1 mph - N/A Rain Light Rain
2:55 AM 42.8 °F 37.0 °F 38.8 °F 86% 29.98 in 5.0 mi SSW 10.4 mph - N/A   Overcast
3:15 AM 42.8 °F 37.5 °F 38.8 °F 86% 29.96 in 5.0 mi South 9.2 mph - N/A   Overcast
3:35 AM 43.0 °F 37.2 °F 38.8 °F 85% 29.95 in 5.0 mi South 10.4 mph - N/A   Overcast
3:55 AM 43.2 °F 38.4 °F 38.8 °F 85% 29.96 in 7.0 mi SSW 8.1 mph - N/A   Overcast
4:15 AM 43.2 °F 37.4 °F 39.2 °F 86% 29.96 in 5.0 mi SSW 10.4 mph - N/A Rain Light Rain
4:35 AM 43.0 °F 37.2 °F 39.2 °F 86% 29.94 in 5.0 mi South 10.4 mph 18.4 mph N/A   Overcast
4:55 AM 42.8 °F 36.6 °F 39.2 °F 87% 29.91 in 4.0 mi South 11.5 mph 16.1 mph N/A Rain Light Rain
5:15 AM 42.8 °F 37.0 °F 39.2 °F 87% 29.91 in 4.0 mi SSW 10.4 mph - N/A   Overcast
5:35 AM 43.0 °F 37.2 °F 39.4 °F 87% 29.91 in 5.0 mi South 10.4 mph - N/A   Overcast
5:55 AM 43.0 °F 36.8 °F 39.4 °F 87% 29.91 in 5.0 mi SSW 11.5 mph 16.1 mph N/A Rain Light Rain
6:15 AM 43.2 °F 37.0 °F 39.6 °F 87% 29.90 in 5.0 mi SSW 11.5 mph - N/A   Overcast
6:35 AM 43.3 °F 36.8 °F 39.6 °F 87% 29.90 in 5.0 mi SSW 12.7 mph 17.3 mph N/A   Overcast
6:55 AM 43.7 °F 38.1 °F 39.7 °F 86% 29.90 in 5.0 mi SW 10.4 mph 16.1 mph N/A   Overcast
7:15 AM 43.7 °F 38.1 °F 40.1 °F 87% 29.90 in 5.0 mi SW 10.4 mph 19.6 mph N/A   Overcast
7:35 AM 43.9 °F 38.3 °F 40.1 °F 87% 29.90 in 4.0 mi SW 10.4 mph - N/A   Overcast
7:55 AM 44.2 °F 38.8 °F 40.5 °F 87% 29.90 in 2.5 mi WSW 10.4 mph - N/A   Drizzle
8:15 AM 44.6 °F 39.2 °F 41.0 °F 87% 29.90 in 1.8 mi WSW 10.4 mph - N/A   Light Drizzle
8:35 AM 44.8 °F 38.3 °F 41.2 °F 87% 29.90 in 4.0 mi West 13.8 mph 17.3 mph N/A   Overcast
8:55 AM 45.5 °F 38.9 °F 41.0 °F 84% 29.90 in 7.0 mi West 15.0 mph - N/A   Overcast
9:15 AM 45.9 °F 40.0 °F 41.0 °F 83% 29.90 in 10.0 mi West 12.7 mph - N/A   Overcast
9:35 AM 46.8 °F - 41.0 °F 80% 29.91 in 10.0 mi WNW 19.6 mph - N/A   Overcast
9:55 AM 48.6 °F - 41.4 °F 76% 29.91 in 10.0 mi WNW 12.7 mph 21.9 mph N/A   Mostly Cloudy
10:15 AM 49.3 °F - 39.9 °F 70% 29.91 in 10.0 mi NW 17.3 mph 23.0 mph N/A   Mostly Cloudy
10:35 AM 49.8 °F - 40.1 °F 69% 29.91 in 10.0 mi NW 17.3 mph 25.3 mph N/A   Mostly Cloudy
10:55 AM 50.9 °F - 40.1 °F 67% 29.91 in 10.0 mi WNW 18.4 mph 25.3 mph N/A   Mostly Cloudy
11:15 AM 50.9 °F - 39.6 °F 65% 29.90 in 10.0 mi WNW 12.7 mph - N/A   Scattered Clouds
11:35 AM 52.0 °F - 39.4 °F 62% 29.90 in 10.0 mi WNW 16.1 mph 24.2 mph N/A   Scattered Clouds
11:55 AM 53.2 °F - 39.4 °F 59% 29.89 in 10.0 mi WNW 19.6 mph 26.5 mph N/A   Scattered Clouds
12:15 PM 53.2 °F - 38.8 °F 58% 29.89 in 10.0 mi WNW 19.6 mph 27.6 mph N/A   Scattered Clouds
12:35 PM 53.1 °F - 38.3 °F 57% 29.89 in 10.0 mi NW 21.9 mph 28.8 mph N/A   Mostly Cloudy
12:55 PM 52.9 °F - 38.3 °F 58% 29.89 in 10.0 mi WNW 18.4 mph 28.8 mph N/A   Overcast
1:15 PM 52.7 °F - 37.6 °F 56% 29.89 in 10.0 mi NW 17.3 mph 25.3 mph N/A   Overcast
1:35 PM 53.1 °F - 37.2 °F 55% 29.89 in 10.0 mi WNW 20.7 mph 25.3 mph N/A   Overcast
1:55 PM 52.3 °F - 36.7 °F 55% 29.90 in 10.0 mi WNW 21.9 mph 28.8 mph N/A   Overcast
2:15 PM 51.8 °F - 36.5 °F 56% 29.90 in 10.0 mi NW 17.3 mph 26.5 mph N/A   Overcast
2:35 PM 51.8 °F - 37.4 °F 58% 29.90 in 10.0 mi WNW 15.0 mph 24.2 mph N/A   Overcast
2:55 PM 51.3 °F - 37.8 °F 60% 29.91 in 10.0 mi WNW 18.4 mph 24.2 mph N/A   Overcast
3:15 PM 51.8 °F - 38.1 °F 60% 29.91 in 10.0 mi NW 12.7 mph 23.0 mph N/A   Overcast
3:35 PM 51.4 °F - 38.1 °F 60% 29.92 in 10.0 mi NW 17.3 mph 25.3 mph N/A   Overcast
4:15 PM 50.7 °F - 37.4 °F 60% 29.93 in 10.0 mi NW 16.1 mph 20.7 mph N/A   Overcast
4:35 PM 50.2 °F - 37.4 °F 62% 29.94 in 10.0 mi NW 12.7 mph 19.6 mph N/A   Overcast
4:55 PM 50.0 °F - 37.4 °F 62% 29.94 in 10.0 mi NW 15.0 mph 20.7 mph N/A   Overcast
5:15 PM 51.1 °F - 37.2 °F 59% 29.95 in 10.0 mi NW 13.8 mph 19.6 mph N/A   Overcast
5:35 PM 49.5 °F - 35.4 °F 58% 29.96 in 10.0 mi NW 16.1 mph 28.8 mph N/A   Overcast
5:55 PM 49.3 °F - 34.0 °F 56% 29.97 in 10.0 mi NW 16.1 mph 20.7 mph N/A   Overcast
6:15 PM 48.7 °F - 34.0 °F 57% 29.97 in 10.0 mi NW 15.0 mph 20.7 mph N/A   Overcast
6:35 PM 48.4 °F - 34.7 °F 59% 29.97 in 10.0 mi NW 13.8 mph 21.9 mph N/A   Overcast
6:55 PM 48.2 °F - 35.6 °F 62% 29.97 in 10.0 mi NW 13.8 mph 19.6 mph N/A   Overcast
7:15 PM 48.4 °F - 35.6 °F 61% 29.97 in 10.0 mi NW 15.0 mph 20.7 mph N/A   Overcast
7:35 PM 48.4 °F - 35.4 °F 61% 29.97 in 10.0 mi NW 13.8 mph - N/A   Overcast
7:55 PM 48.2 °F - 35.6 °F 62% 29.97 in 10.0 mi NW 10.4 mph 16.1 mph N/A   Overcast
8:15 PM 48.2 °F - 35.4 °F 61% 29.97 in 10.0 mi NW 16.1 mph 19.6 mph N/A   Overcast
8:35 PM 48.0 °F - 35.1 °F 61% 29.97 in 10.0 mi NW 12.7 mph 19.6 mph N/A   Overcast
8:55 PM 48.2 °F - 35.1 °F 60% 29.97 in 10.0 mi NW 13.8 mph 21.9 mph N/A   Overcast
9:15 PM 48.2 °F - 34.7 °F 60% 29.97 in 10.0 mi WNW 12.7 mph 19.6 mph N/A   Overcast
9:35 PM 48.2 °F - 33.8 °F 58% 29.97 in 10.0 mi NW 17.3 mph 20.7 mph N/A   Overcast
9:55 PM 48.2 °F - 32.4 °F 54% 29.97 in 10.0 mi NW 18.4 mph 26.5 mph N/A   Overcast
10:15 PM 47.8 °F - 33.1 °F 57% 29.97 in 10.0 mi NW 12.7 mph 23.0 mph N/A   Overcast
10:35 PM 47.5 °F - 34.0 °F 59% 29.97 in 10.0 mi NW 16.1 mph 21.9 mph N/A   Overcast
10:55 PM 47.3 °F - 34.0 °F 60% 29.98 in 10.0 mi NW 12.7 mph 18.4 mph N/A   Overcast
11:15 PM 46.9 °F - 33.8 °F 60% 29.98 in 10.0 mi NW 15.0 mph - N/A   Overcast
11:35 PM 46.9 °F - 33.8 °F 60% 29.99 in 10.0 mi NW 12.7 mph 21.9 mph N/A   Overcast
11:55 PM 46.8 °F - 33.6 °F 60% 29.99 in 10.0 mi NW 16.1 mph - N/A   Overcast